Regional Weather Roundup
Issued by NWS

Home | Current Version | Previous Version | Graphics & Text | Print | Product List | Glossary On
Versions: 1 2 3 4 5 6 7 8 9 10 11 12 13 14 15 16 17 18 19 20 21 22 23 24 25 26 27 28 29 30 31 32 33 34 35 36 37 38 39 40 41 42 43 44 45 46 47 48 49 50
000
ASUS44 KMEG 260200
RWRTN
TENNESSEE HOURLY STATE WEATHER ROUNDUP
NATIONAL WEATHER SERVICE MEMPHIS TN
900 PM CDT MON MAY 25 2015

TNZ002-004-019-021-049-052-054-088>092-260300-
WEST TENNESSEE

CITY           SKY/WX    TMP DP  RH WIND       PRES   REMARKS
MEMPHIS INTL   MOCLDY    78  70  76 S10       30.00F
NWS MEMPHIS      N/A     76 N/A N/A MISG        N/A
JACKSON        CLOUDY    73  68  84 S6        30.05R
DYERSBURG      MOCLDY    73  57  56 SE7       30.03S
PARIS          CLEAR     70  68  94 S10       30.07R
LEXINGTON      CLEAR     70  66  88 S3        30.08R
$$

TNZ008-025-027-028-033-062-065-066-260300-
NORTH MIDDLE TENNESSEE

CITY           SKY/WX    TMP DP  RH WIND       PRES   REMARKS
NASHVILLE      CLOUDY    68  66  93 SE6       30.12R
CLARKSVILLE    CLOUDY    70  68  93 S8        30.08R
COOKEVILLE     CLEAR     66  66 100 CALM      30.14R
CROSSVILLE     CLOUDY    67  63  87 S3        30.20R
$$

TNZ061-075-076-078-094-096-097-260300-
SOUTH MIDDLE TENNESSEE

CITY           SKY/WX    TMP DP  RH WIND       PRES   REMARKS
FAYETTEVILLE   CLEAR    N/A N/A N/A MISG      30.12S
TULLAHOMA      PTCLDY    66  64  94 CALM      30.14S
WINCHESTER     MOCLDY    66  64  94 E9        30.14F
MCMINNVILLE    PTCLDY    68  68 100 SE7       30.14S
COLUMBIA       CLEAR     68  66  94 CALM      30.10R
SHELBYVILLE    CLEAR     68  68 100 SE3       30.13S
$$

TNZ017-018-042-046-047-260300-
NORTHEAST TENNESSEE

CITY           SKY/WX    TMP DP  RH WIND       PRES   REMARKS
TRI CITIES     MOCLDY    76  58  53 S7        30.20S
ELIZABETHTON   CLEAR     70  57  64 E3        30.23R
$$

TNZ012-013-036-069-073-074-260300-
CENTRAL EAST TENNESSEE

CITY           SKY/WX    TMP DP  RH WIND       PRES   REMARKS
KNOXVILLE      LGT RAIN  71  65  81 S15G25    30.20R
OAK RIDGE      LGT RAIN  70  67  90 CALM      30.19F
GATLINBURG     CLOUDY    73  63  68 CALM      30.17S
$$

TNZ083-085-099-260300-
SOUTHEAST TENNESSEE

CITY           SKY/WX    TMP DP  RH WIND       PRES   REMARKS
CHATTANOOGA    CLOUDY    68  66  93 SE5       30.17F
$$

SKY/WX REPORTED AS FAIR MEANS FEW OR NO CLOUDS BELOW
12 THOUSAND FEET.




USA.gov is the U.S. government's official web portal to all federal, state and local government web resources and services.